Elsenborn, Belgium

9:11 AM CET on February 20, 2018 (GMT +0100)
Elsenborn

Weather History for EBLB - July, 2013

Change the Weather History Date:

Saturday, July 13, 2013

  Actual Average Record
Temperature  
Mean Temperature 56 °F -  
Max Temperature 66 °F 61 °F 73 °F (1997)
Min Temperature 46 °F 49 °F 33 °F (2017)
Degree Days  
Heating Degree Days 9    
Growing Degree Days 6 (Base 50)    
Moisture  
Dew Point 50 °F    
Average Humidity 82    
Maximum Humidity 100    
Minimum Humidity 53    
Precipitation  
Precipitation 0.00 in - - ()
Sea Level Pressure  
Sea Level Pressure 30.21 in    
Wind  
Wind Speed 3 mph ()    
Max Wind Speed 8 mph    
Max Gust Speed -    
Visibility 6.4 miles    
Events      
Averages and records for this station are not official NWS values.
T = Trace of Precipitation, MM = Missing Value Source: Averaged Metar Reports

Daily Weather History Graph

Daily Weather History Graph

Search for Another Location

Airport or City:

Trip Planner

Search our weather history database for the weather conditions in past years. The results will help you decide how hot, cold, wet, or windy it might be!

Date:

Astronomy

Jul. 13, 2013 Rise Set
Actual Time 5:38 AM CEST 9:42 PM CEST
Civil Twilight 4:55 AM CEST 10:26 PM CEST
Nautical Twilight 3:53 AM CEST 11:27 PM CEST
Astronomical Twilight 2:13 AM CEST 1:08 AM CEST
Moon 11:16 AM CEST (7/13) 11:34 PM CEST (7/13)
Length of Visible Light 17h 30m
Length of Day
16h 04m
Waxing Crescent, 23% of the Moon is Illuminated
Jul 13
Waxing Crescent
Jul 16
First Quarter
Jul 22
Full
Jul 29
Last Quarter
Aug 6
New

Hourly Weather History & Observations

Time (CEST) Temp. Windchill Dew Point Humidity Pressure Visibility Wind Dir Wind Speed Gust Speed Precip Events Conditions
12:00 AM 48 °F - 46 °F 91% 30.23 in 7 mi 2.3 mph - -  
12:22 AM 46.4 °F 45.2 °F 46.4 °F 100% 30.21 in 4.3 mi Variable 3.5 mph - N/A   Partly Cloudy
12:25 AM 46.4 °F 45.2 °F 46.4 °F 100% 30.21 in 4.3 mi Variable 3.5 mph - N/A   Partly Cloudy
1:00 AM 47 °F - 46 °F 97% 30.24 in 4 mi 2.2 mph - -   Partly Cloudy
1:13 AM 48.2 °F - 48.2 °F 100% 30.21 in 5.0 mi Variable 2.3 mph - N/A   Mostly Cloudy
1:19 AM 48.2 °F - 48.2 °F 100% 30.21 in 4.3 mi Variable 2.3 mph - N/A   Mostly Cloudy
1:25 AM 48.2 °F - 48.2 °F 100% 30.21 in 4.3 mi Calm Calm - N/A   Mostly Cloudy
2:00 AM 49 °F - 48 °F 95% 30.22 in 4 mi 4.5 mph - -   Mostly Cloudy
2:25 AM 50.0 °F - 50.0 °F 100% 30.21 in 5.0 mi Variable 1.2 mph - N/A   Mostly Cloudy
3:00 AM 50 °F - 49 °F 96% 30.21 in 6 mi 2.2 mph - -   Mostly Cloudy
3:25 AM 50.0 °F - 48.2 °F 94% 30.21 in 5.6 mi Variable 1.2 mph - N/A   Overcast
3:28 AM 50.0 °F - 48.2 °F 94% 30.21 in 6.2 mi Variable 1.2 mph - N/A   Overcast
3:34 AM 50.0 °F - 48.2 °F 94% 30.21 in 6.2 mi Calm Calm - N/A   Mostly Cloudy
4:00 AM 50 °F - 49 °F 93% 30.21 in 6 mi Calm Calm - -   Mostly Cloudy
4:25 AM 50.0 °F - 50.0 °F 100% 30.18 in 5.6 mi Variable 1.2 mph - N/A   Mostly Cloudy
5:00 AM 50 °F - 49 °F 96% 30.20 in 6 mi Calm Calm - -   Scattered Clouds
5:25 AM 50.0 °F - 50.0 °F 100% 30.18 in 5.6 mi Calm Calm - N/A   Mostly Cloudy
6:00 AM 50 °F - 50 °F 99% 30.20 in 6 mi Calm Calm - -   Scattered Clouds
6:25 AM 51.8 °F - 50.0 °F 94% 30.18 in 5.0 mi Variable 2.3 mph - N/A   Overcast
7:00 AM 53 °F - 51 °F 92% 30.19 in 4 mi 4.5 mph - -   Mostly Cloudy
7:25 AM 53.6 °F - 51.8 °F 94% 30.18 in 3.1 mi Variable 2.3 mph - N/A   Overcast
8:00 AM 53 °F - 52 °F 96% 30.20 in 3 mi 4.5 mph - -   Partly Cloudy
8:25 AM 53.6 °F - 51.8 °F 94% 30.21 in 3.1 mi NNE 4.6 mph - N/A   Mostly Cloudy
8:28 AM 53.6 °F - 51.8 °F 94% 30.21 in 3.1 mi NNE 4.6 mph - N/A   Mostly Cloudy
8:34 AM 53.6 °F - 51.8 °F 94% 30.21 in 3.7 mi NE 4.6 mph - N/A   Mostly Cloudy
9:00 AM 54 °F - 52 °F 89% 30.20 in 4 mi NE 4.5 mph - -   Scattered Clouds
9:25 AM 55.4 °F - 51.8 °F 88% 30.21 in 4.3 mi NNE 8.1 mph - N/A   Mostly Cloudy
10:00 AM 56 °F - 50 °F 75% 30.21 in 5 mi NE 6.7 mph - -   Scattered Clouds
10:25 AM 55.4 °F - 50.0 °F 82% 30.21 in 5.6 mi ENE 8.1 mph - N/A   Overcast
11:00 AM 56 °F - 49 °F 71% 30.21 in 6 mi ENE 6.7 mph - -   Mostly Cloudy
11:25 AM 57.2 °F - 50.0 °F 77% 30.21 in 5.6 mi NNE 5.8 mph - N/A   Overcast
12:00 PM 57 °F - 50 °F 72% 30.21 in 6 mi NNE 3.5 mph - -   Mostly Cloudy
12:25 PM 59.0 °F - 50.0 °F 72% 30.24 in 6.2 mi NE 5.8 mph - N/A   Overcast
1:00 PM 59 °F - 51 °F 67% 30.21 in 5 mi NE 4.5 mph - -   Mostly Cloudy
1:25 PM 59.0 °F - 50.0 °F 72% 30.24 in 6.2 mi NNE 8.1 mph - N/A   Mostly Cloudy
2:00 PM 61 °F - 51 °F 60% 30.21 in 8 mi NNE 6.7 mph - -   Mostly Cloudy
2:25 PM 60.8 °F - 50.0 °F 68% 30.24 in 6.2 mi NNE 6.9 mph - N/A   Mostly Cloudy
3:25 PM 62.6 °F - 51.8 °F 68% 30.24 in 6.2 mi NNE 4.6 mph - N/A   Mostly Cloudy
3:28 PM 64.4 °F - 53.6 °F 68% 30.24 in 6.2 mi NE 5.8 mph - N/A   Mostly Cloudy
4:00 PM 65 °F - 54 °F 58% 30.19 in 9 mi NE 6.7 mph - -   Mostly Cloudy
4:25 PM 64.4 °F - 51.8 °F 64% 30.24 in 6.2 mi NNE 6.9 mph - N/A   Partly Cloudy
5:00 PM 65 °F - 54 °F 58% 30.18 in 9 mi North 4.5 mph - -  
5:25 PM 66.2 °F - 53.6 °F 64% 30.24 in 6.2 mi NNE 8.1 mph - N/A   Partly Cloudy
6:00 PM 66 °F - 53 °F 53% 30.17 in 12 mi North 6.7 mph - -   Scattered Clouds
6:25 PM 66.2 °F - 53.6 °F 64% 30.21 in 6.2 mi North 6.9 mph - N/A   Partly Cloudy
7:00 PM 65 °F - 53 °F 57% 30.18 in 14 mi North 6.7 mph - -   Scattered Clouds
7:25 PM 64.4 °F - 51.8 °F 64% 30.24 in 6.2 mi North 5.8 mph - N/A   Clear
8:00 PM 62 °F - 51 °F 59% 30.19 in 16 mi North 6.7 mph - -  
8:25 PM 60.8 °F - 51.8 °F 72% 30.24 in 6.2 mi North 5.8 mph - N/A   Clear
9:00 PM 59 °F - 51 °F 66% 30.21 in 19 mi North 4.5 mph - -  
9:25 PM 57.2 °F - 50.0 °F 77% 30.24 in 6.2 mi Variable 3.5 mph - N/A   Clear
10:00 PM 55 °F - 49 °F 76% 30.23 in 22 mi 1.2 mph - -  
10:25 PM 53.6 °F - 48.2 °F 82% 30.24 in 6.2 mi North 4.6 mph - N/A   Clear
11:00 PM 52 °F - 49 °F 85% 30.25 in 16 mi 4.5 mph - -  
11:25 PM 51.8 °F - 48.2 °F 88% 30.24 in 6.2 mi Variable 2.3 mph - N/A   Clear